Latest Weather Observations for Kuitpo

IDS60801

Issued at 7:31 pm CDT Thursday 11 February 2016 (issued every 30 minutes, with the page automatically refreshed every 10 minutes)

About weather observations | Map of weather stations | Latest weather observations for SA | Other Formats
Station Details ID: 023887 Name: KUITPO FOREST RESERVE Lat: -35.17 Lon: 138.68 Height: 365.0 m
Data from the previous 72 hours. | See also: Recent months at Kuitpo
Date/Time
CDT
Temp
°C
App
Temp
°C
Dew
Point
Rel
Hum
%
Delta-T
°C
Wind Press
QNH
hPa
Press
MSL
hPa
Rain
since 9 am
mm
Dir
 
Spd
km/h
Gust
km/h
Spd
kts
Gust
kts
11/07:30pm 16.9 13.0 13.2 79 2.1 SE 26 39 14 21 1015.1 1013.8 0.0
11/07:00pm 17.6 13.7 13.3 76 2.5 SSE 26 41 14 22 1015.1 1013.8 0.0
11/06:30pm 18.9 15.7 13.1 69 3.3 SE 22 35 12 19 1014.8 1013.4 0.0
11/06:00pm 20.0 16.3 12.7 63 4.2 SE 24 35 13 19 1014.6 1013.2 0.0
11/05:30pm 20.6 17.1 12.1 58 4.8 SSE 22 33 12 18 1014.7 1013.3 0.0
11/05:00pm 22.4 19.4 12.1 52 5.9 SE 19 30 10 16 1014.5 1013.1 0.0
11/04:30pm 22.6 19.7 12.3 52 5.9 SSE 19 30 10 16 1014.5 1013.1 0.0
11/04:00pm 23.2 19.8 10.6 45 7.1 SE 19 26 10 14 1014.7 1013.3 0.0
11/03:30pm 23.4 19.7 9.4 41 7.7 SE 19 30 10 16 1014.8 1013.4 0.0
11/03:00pm 22.9 19.5 10.7 46 6.8 SE 19 30 10 16 1015.1 1013.8 0.0
11/02:30pm 23.7 19.7 8.9 39 8.1 ESE 20 32 11 17 1015.2 1013.9 0.0
11/02:00pm 23.2 20.2 10.6 45 7.1 ESE 17 30 9 16 1015.3 1014.0 0.0
11/01:30pm 22.8 19.4 11.2 48 6.6 ESE 20 28 11 15 1015.3 1014.0 0.0
11/01:00pm 22.4 19.1 11.5 50 6.2 SE 20 33 11 18 1015.5 1014.2 0.0
11/12:30pm 21.9 18.2 11.6 52 5.8 ESE 22 33 12 18 1015.9 1014.6 0.0
11/12:00pm 22.0 19.1 12.3 54 5.6 ESE 19 28 10 15 1015.9 1014.6 0.0
11/11:30am 20.8 17.8 12.5 59 4.8 ESE 20 30 11 16 1015.9 1014.6 0.0
11/11:00am 19.9 16.3 12.9 64 4.0 ESE 24 35 13 19 1016.2 1014.8 0.0
11/10:30am 18.8 15.2 13.2 70 3.2 ESE 24 35 13 19 1016.2 1014.8 0.0
11/10:00am 17.7 13.3 13.0 74 2.7 ESE 28 37 15 20 1016.5 1015.1 0.0
11/09:30am 16.4 11.6 12.9 80 2.0 ESE 30 44 16 24 1016.6 1015.2 0.0
11/09:00am 15.7 11.0 13.2 85 1.4 ESE 30 41 16 22 1016.8 1015.4 0.0
11/08:30am 14.5 9.7 12.9 90 0.9 SE 30 43 16 23 1016.7 1015.3 0.0
11/08:00am 14.2 9.8 12.9 92 0.7 SE 28 44 15 24 1016.4 1015.0 0.0
11/07:30am 13.9 9.8 12.8 93 0.6 SE 26 44 14 24 1015.9 1014.6 0.0
11/07:12am 13.9 9.5 12.8 93 0.6 SE 28 46 15 25 1015.8 1014.5 0.0
11/07:00am 13.9 9.5 12.8 93 0.6 SE 28 44 15 24 1015.6 1014.3 0.0
11/06:47am 13.9 9.5 12.8 93 0.6 SE 28 46 15 25 1015.5 1014.2 0.0
11/06:30am 13.8 9.4 12.9 94 0.5 SE 28 44 15 24 1015.4 1014.1 0.0
11/06:00am 13.8 9.7 12.7 93 0.6 SE 26 41 14 22 1015.0 1013.7 0.0
11/05:30am 13.9 9.4 12.5 91 0.8 SE 28 46 15 25 1014.8 1013.4 0.0
11/05:00am 14.1 9.6 12.7 91 0.8 SE 28 50 15 27 1014.6 1013.2 0.0
11/04:30am 14.1 9.6 12.7 91 0.8 SE 28 54 15 29 1014.4 1013.0 0.0
11/04:08am 14.2 9.9 13.1 93 0.6 SE 28 46 15 25 1014.4 1013.0 0.0
11/04:00am 14.2 9.9 13.1 93 0.6 SE 28 44 15 24 1014.3 1012.9 0.0
11/03:30am 14.2 10.2 13.1 93 0.6 SE 26 43 14 23 1014.3 1012.9 0.0
11/03:04am 14.1 9.0 13.0 93 0.6 SE 32 52 17 28 1014.1 1012.7 0.0
11/03:00am 14.1 9.3 13.0 93 0.6 SE 30 44 16 24 1014.2 1012.8 0.0
11/02:30am 14.2 9.9 13.1 93 0.6 SE 28 41 15 22 1014.5 1013.1 0.0
11/02:00am 14.1 10.5 13.1 94 0.6 SE 24 43 13 23 1014.6 1013.2 0.0
11/01:30am 14.2 10.2 13.1 93 0.6 SE 26 41 14 22 1014.9 1013.6 0.0
11/01:00am 14.3 9.6 13.2 93 0.6 SE 30 52 16 28 1015.0 1013.7 0.0
11/12:45am 14.2 9.9 13.2 94 0.6 SE 28 48 15 26 1015.0 1013.7 0.0
11/12:30am 14.2 9.9 13.2 94 0.6 SE 28 43 15 23 1015.1 1013.8 0.0
11/12:00am 14.3 10.0 13.3 94 0.6 SE 28 43 15 23 1015.0 1013.7 0.0
 
Date/Time
CDT
Temp
°C
App
Temp
°C
Dew
Point
Rel
Hum
%
Delta-T
°C
Wind Press
QNH
hPa
Press
MSL
hPa
Rain
since 9 am
mm
Dir
 
Spd
km/h
Gust
km/h
Spd
kts
Gust
kts
10/11:31pm 14.3 10.0 13.3 94 0.6 SE 28 48 15 26 1014.8 1013.4 0.0
10/11:30pm 14.3 10.0 13.3 94 0.6 SE 28 39 15 21 1014.9 1013.6 0.0
10/11:00pm 14.2 10.3 13.4 95 0.5 SE 26 37 14 20 1015.0 1013.7 0.0
10/10:30pm 14.2 10.2 13.1 93 0.6 SE 26 43 14 23 1015.0 1013.7 0.0
10/10:00pm 14.2 10.2 13.1 93 0.6 SE 26 39 14 21 1014.9 1013.6 0.0
10/09:30pm 14.3 10.4 13.2 93 0.6 SE 26 37 14 20 1014.7 1013.3 0.0
10/09:00pm 14.5 10.6 13.2 92 0.7 SE 26 39 14 21 1014.7 1013.3 0.0
10/08:30pm 15.0 11.5 13.4 90 0.9 SE 24 37 13 20 1014.6 1013.2 0.0
10/08:00pm 16.0 12.1 13.3 84 1.5 SE 26 41 14 22 1014.5 1013.1 0.0
10/07:30pm 16.8 12.4 12.9 78 2.2 SE 28 43 15 23 1014.2 1012.8 0.0
10/07:21pm 17.3 12.7 12.4 73 2.8 SE 28 46 15 25 1014.1 1012.7 0.0
10/07:00pm 17.8 13.3 10.2 61 4.1 SE 24 39 13 21 1014.0 1012.6 0.0
10/06:30pm 18.2 14.1 11.3 64 3.8 SE 24 35 13 19 1013.9 1012.5 0.0
10/06:00pm 19.3 15.6 12.6 65 3.8 SSE 24 32 13 17 1013.7 1012.3 0.0
10/05:30pm 20.1 17.0 12.1 60 4.5 SE 20 35 11 19 1013.4 1012.0 0.0
10/05:00pm 20.9 17.8 12.3 58 4.9 SE 20 33 11 18 1013.5 1012.1 0.0
10/04:30pm 23.7 21.1 12.0 48 6.7 SE 17 28 9 15 1013.4 1012.0 0.0
10/04:00pm 23.6 20.3 11.6 47 6.9 SSE 20 30 11 16 1013.5 1012.1 0.0
10/03:30pm 24.8 21.1 11.4 43 7.7 SE 22 37 12 20 1013.6 1012.2 0.0
10/03:00pm 24.9 22.0 12.2 45 7.4 SE 19 30 10 16 1014.1 1012.7 0.0
10/02:30pm 24.2 21.4 13.1 50 6.5 SE 20 35 11 19 1014.1 1012.7 0.0
10/02:00pm 26.0 24.0 12.8 44 7.8 ESE 15 24 8 13 1014.2 1012.8 0.0
10/01:30pm 24.8 22.3 12.4 46 7.2 ESE 17 24 9 13 1014.5 1013.1 0.0
10/01:00pm 24.7 22.8 13.0 48 6.9 ESE 15 22 8 12 1014.8 1013.4 0.0
10/12:30pm 24.2 21.5 12.8 49 6.7 ESE 19 28 10 15 1015.2 1013.9 0.0
10/12:00pm 23.5 20.7 11.5 47 6.8 ESE 17 24 9 13 1015.5 1014.2 0.0
10/11:30am 23.7 19.9 8.9 39 8.1 SE 19 26 10 14 1015.7 1014.4 0.0
10/11:00am 22.4 18.7 9.6 44 7.0 ESE 19 26 10 14 1015.8 1014.5 0.0
10/10:30am 20.8 18.0 12.5 59 4.8 ESE 19 28 10 15 1016.0 1014.7 0.0
10/10:00am 18.6 15.6 12.4 67 3.5 ESE 20 28 11 15 1015.8 1014.5 0.0
10/09:30am 17.0 14.0 12.7 76 2.4 SE 20 28 11 15 1015.8 1014.5 0.0
10/09:00am 15.7 13.5 13.2 85 1.4 ESE 17 24 9 13 1015.4 1014.1 0.0
10/08:30am 14.1 11.6 13.6 97 0.3 SE 19 32 10 17 1015.6 1014.3 0.0
10/08:00am 13.0 10.1 12.8 99 0.1 SE 20 30 11 16 1015.3 1014.0 0.0
10/07:30am 12.9 10.1 12.7 99 0.1 ESE 19 22 10 12 1014.9 1013.6 0.0
10/07:00am 12.3 9.7 12.1 99 0.1 ESE 17 20 9 11 1014.7 1013.3 0.0
10/06:30am 12.5 10.0 12.3 99 0.1 ESE 17 20 9 11 1014.5 1013.1 0.0
10/06:00am 12.6 10.1 12.3 98 0.2 ESE 17 20 9 11 1014.3 1012.9 0.0
10/05:30am 12.8 9.9 12.3 97 0.3 SE 19 24 10 13 1014.3 1012.9 0.0
10/05:00am 13.0 10.0 12.1 94 0.5 SE 19 24 10 13 1014.2 1012.8 0.0
10/04:30am 13.2 10.3 12.3 94 0.5 ESE 19 24 10 13 1014.2 1012.8 0.0
10/04:00am 13.4 10.3 12.3 93 0.6 SE 20 28 11 15 1014.4 1013.0 0.0
10/03:30am 13.6 10.4 11.3 86 1.2 SE 19 28 10 15 1014.5 1013.1 0.0
10/03:00am 14.0 10.7 10.8 81 1.7 SE 19 24 10 13 1014.6 1013.2 0.0
10/02:30am 14.0 10.5 10.8 81 1.7 SE 20 26 11 14 1014.7 1013.3 0.0
10/02:00am 14.1 10.6 10.9 81 1.7 SE 20 28 11 15 1015.0 1013.7 0.0
10/01:30am 14.5 10.9 9.7 73 2.5 SE 19 26 10 14 1015.2 1013.9 0.0
10/01:00am 15.2 11.1 8.7 65 3.4 ESE 20 26 11 14 1015.5 1014.2 0.0
10/12:30am 15.0 10.8 9.8 71 2.7 ESE 22 32 12 17 1015.7 1014.4 0.0
10/12:00am 14.4 10.9 11.0 80 1.8 SE 20 28 11 15 1016.0 1014.7 0.0
 
Date/Time
CDT
Temp
°C
App
Temp
°C
Dew
Point
Rel
Hum
%
Delta-T
°C
Wind Press
QNH
hPa
Press
MSL
hPa
Rain
since 9 am
mm
Dir
 
Spd
km/h
Gust
km/h
Spd
kts
Gust
kts
09/11:30pm 14.6 11.3 11.7 83 1.6 SE 20 30 11 16 1016.3 1014.9 0.0
09/11:00pm 14.9 11.1 11.1 78 2.1 SE 22 35 12 19 1016.3 1014.9 0.0
09/10:30pm 15.2 11.2 8.9 66 3.3 SE 20 28 11 15 1016.4 1015.0 0.0
09/10:00pm 15.7 11.2 8.4 62 3.8 SE 22 32 12 17 1016.5 1015.1 0.0
09/09:30pm 16.0 11.9 8.5 61 3.9 SE 20 30 11 16 1016.4 1015.0 0.0
09/09:00pm 16.3 12.4 10.8 70 3.0 SE 22 30 12 16 1016.3 1014.9 0.0
09/08:30pm 17.1 14.0 12.2 73 2.7 SE 20 30 11 16 1016.3 1014.9 0.0
09/08:00pm 18.4 15.6 12.6 69 3.3 SE 19 28 10 15 1016.3 1014.9 0.0
09/07:30pm 19.7 17.0 12.9 65 3.9 SE 19 24 10 13 1016.3 1014.9 0.0
09/07:00pm 20.6 17.6 12.6 60 4.6 SE 20 28 11 15 1016.4 1015.0 0.0
09/06:30pm 21.5 18.9 13.2 59 4.8 SE 19 28 10 15 1016.3 1014.9 0.0
09/06:00pm 22.5 19.3 13.0 55 5.5 SE 22 32 12 17 1016.2 1014.8 0.0
09/05:30pm 23.7 20.9 13.3 52 6.1 SE 20 30 11 16 1016.3 1014.9 0.0
09/05:00pm 24.6 21.9 13.5 50 6.6 SE 20 30 11 16 1016.5 1015.1 0.0
09/04:30pm 25.7 22.9 14.2 49 6.9 ESE 22 30 12 16 1016.6 1015.2 0.0
09/04:00pm 26.5 24.6 14.3 47 7.4 SE 17 30 9 16 1016.7 1015.3 0.0
09/03:30pm 27.4 25.2 14.4 45 7.9 SE 19 28 10 15 1016.9 1015.5 0.0
09/03:00pm 29.5 27.0 12.4 35 10.2 E 17 24 9 13 1017.1 1015.7 0.0
09/02:30pm 28.8 26.8 11.4 34 10.2 SE 13 22 7 12 1017.4 1016.1 0.0
09/02:00pm 28.6 26.5 11.2 34 10.1 E 13 22 7 12 1017.7 1016.4 0.0
09/01:30pm 27.9 26.1 11.0 35 9.8 E 11 20 6 11 1018.1 1016.8 0.0
09/01:00pm 27.1 25.5 11.6 38 9.0 ESE 11 20 6 11 1018.4 1017.1 0.0
09/12:30pm 27.2 25.4 13.2 42 8.3 E 15 22 8 12 1018.6 1017.3 0.0
09/12:00pm 25.3 22.9 12.5 45 7.5 ENE 17 24 9 13 1018.9 1017.6 0.0
09/11:30am 24.6 22.1 12.2 46 7.2 E 17 24 9 13 1019.3 1017.9 0.0
09/11:00am 23.0 21.1 14.3 58 5.2 E 17 20 9 11 1019.6 1018.2 0.0
09/10:30am 21.5 19.6 15.1 67 3.8 E 19 24 10 13 1019.7 1018.3 0.0
09/10:00am 19.3 17.3 13.9 71 3.2 E 17 24 9 13 1019.7 1018.3 0.0
09/09:30am 17.6 15.1 13.5 77 2.4 E 19 26 10 14 1020.0 1018.7 0.0
09/09:00am 15.6 12.8 13.1 85 1.4 E 20 28 11 15 1020.1 1018.8 0.2
09/08:30am 14.3 11.7 13.7 96 0.3 ESE 20 28 11 15 1020.0 1018.7 0.2
09/08:00am 13.3 9.7 13.1 99 0.1 ESE 24 32 13 17 1019.7 1018.3 0.2
09/07:30am 12.9 9.6 12.7 99 0.1 ESE 22 28 12 15 1019.5 1018.1 0.2
09/07:00am 12.7 9.7 12.5 99 0.1 ESE 20 28 11 15 1019.5 1018.1 0.2
09/06:30am 12.8 9.4 12.6 99 0.1 ESE 22 28 12 15 1019.3 1017.9 0.2
09/06:00am 12.9 9.5 12.6 98 0.2 ESE 22 30 12 16 1019.3 1017.9 0.0
09/05:30am 13.1 9.8 12.8 98 0.2 ESE 22 28 12 15 1019.2 1017.8 0.0
09/05:00am 13.2 9.6 12.9 98 0.2 ESE 24 32 13 17 1018.9 1017.6 0.0
09/04:30am 13.4 9.8 13.1 98 0.2 ESE 24 35 13 19 1019.2 1017.8 0.0
09/04:00am 13.6 10.5 13.3 98 0.2 ESE 22 32 12 17 1019.3 1017.9 0.0
09/03:30am 13.6 10.4 13.1 97 0.3 ESE 22 32 12 17 1019.3 1017.9 0.0
09/03:00am 13.8 10.3 13.3 97 0.3 ESE 24 33 13 18 1019.4 1018.0 0.0
09/02:30am 14.0 10.5 13.4 96 0.3 SE 24 41 13 22 1019.7 1018.3 0.0
09/02:00am 14.2 10.4 13.6 96 0.3 SE 26 37 14 20 1019.8 1018.5 0.0
09/01:30am 14.4 10.2 13.6 95 0.5 SE 28 46 15 25 1020.1 1018.8 0.0
09/01:00am 14.4 10.2 13.6 95 0.5 SE 28 46 15 25 1020.2 1018.9 0.0
09/12:53am 14.5 10.4 13.7 95 0.5 SE 28 46 15 25 1020.2 1018.9 0.0
09/12:30am 14.6 10.0 13.6 94 0.6 SE 30 46 16 25 1020.4 1019.1 0.0
09/12:03am 14.7 10.6 13.7 94 0.6 SE 28 48 15 26 1020.6 1019.3 0.0
09/12:00am 14.6 10.4 13.6 94 0.6 SE 28 39 15 21 1020.7 1019.4 0.0
 
Date/Time
CDT
Temp
°C
App
Temp
°C
Dew
Point
Rel
Hum
%
Delta-T
°C
Wind Press
QNH
hPa
Press
MSL
hPa
Rain
since 9 am
mm
Dir
 
Spd
km/h
Gust
km/h
Spd
kts
Gust
kts
08/11:30pm 14.6 10.8 13.6 94 0.6 SE 26 44 14 24 1020.8 1019.5 0.0
08/11:03pm 14.6 10.4 13.5 93 0.6 SE 28 46 15 25 1021.0 1019.7 0.0
08/11:00pm 14.7 10.9 13.6 93 0.6 SE 26 41 14 22 1021.0 1019.7 0.0
08/10:53pm 14.7 10.5 13.6 93 0.6 SE 28 46 15 25 1021.1 1019.8 0.0
08/10:30pm 14.7 10.1 13.4 92 0.7 SE 30 46 16 25 1021.0 1019.7 0.0
08/10:24pm 14.6 10.3 13.3 92 0.7 SE 28 46 15 25 1021.0 1019.7 0.0
08/10:00pm 14.6 10.3 13.3 92 0.7 SE 28 44 15 24 1021.0 1019.7 0.0
08/09:42pm 14.5 9.8 13.2 92 0.7 SE 30 48 16 26 1020.8 1019.5 0.0
08/09:30pm 14.5 10.2 13.2 92 0.7 SE 28 44 15 24 1020.8 1019.5 0.0
08/09:00pm 14.7 10.4 13.1 90 0.9 SE 28 48 15 26 1020.5 1019.2 0.0
08/08:37pm 14.9 10.5 12.8 87 1.2 SE 28 46 15 25 1020.4 1019.1 0.0
08/08:30pm 15.0 10.1 12.7 86 1.3 SE 30 44 16 24 1020.4 1019.1 0.0
08/08:10pm 15.6 10.4 12.7 83 1.6 SE 32 50 17 27 1020.2 1018.9 0.0
08/08:00pm 15.9 10.4 12.5 80 1.9 SE 33 48 18 26 1020.1 1018.8 0.0

Other Formats:

Comma delimited format used in spreadsheet applications
http://www.bom.gov.au/fwo/IDS60801/IDS60801.94683.axf

JavaScript Object Notation format (JSON) in row-major order
http://www.bom.gov.au/fwo/IDS60801/IDS60801.94683.json